This is the latest recevied weather packets stored in our database for station/object AC2VK-1. If no packets are shown the sender has not sent any weather packets the latest 1 day(s).
| Time | Temp. | Humidity | Pressure | Rain* | Wind** | Luminosity | Snow |
|---|---|---|---|---|---|---|---|
| 1777999156 | 22.78° C | 50% | 1016.5 hPa | 0 mm | 2.24 m/s, 4° | - | - |
| 1777998556 | 22.78° C | 51% | 1016.6 hPa | 0 mm | 1.79 m/s, 225° | - | - |
| 1777997956 | 22.78° C | 49% | 1016.6 hPa | 0 mm | 2.68 m/s, 157° | - | - |
| 1777997356 | 22.78° C | 50% | 1016.4 hPa | 0 mm | 2.24 m/s, 341° | - | - |
| 1777996756 | 22.78° C | 51% | 1016.6 hPa | 0 mm | 0.89 m/s, 291° | - | - |
| 1777996156 | 22.22° C | 55% | 1016.4 hPa | 0 mm | 1.34 m/s, 343° | - | - |
| 1777995556 | 21.67° C | 53% | 1016.5 hPa | 0 mm | 1.79 m/s, 287° | - | - |
| 1777994956 | 21.67° C | 54% | 1016.6 hPa | 0 mm | 1.79 m/s, 274° | - | - |
| 1777994356 | 21.67° C | 56% | 1016.4 hPa | 0 mm | 0.89 m/s, 253° | - | - |
| 1777993756 | 21.67° C | 56% | 1016.5 hPa | 0 mm | 0.89 m/s, 114° | - | - |
| 1777993156 | 21.67° C | 54% | 1016.5 hPa | 0 mm | 1.34 m/s, 231° | - | - |
| 1777992556 | 21.67° C | 57% | 1016.6 hPa | 0 mm | 1.34 m/s, 121° | - | - |
| 1777991956 | 21.67° C | 58% | 1016.5 hPa | 0 mm | 0.45 m/s, 190° | - | - |
| 1777991356 | 20.56° C | 61% | 1016.4 hPa | 0 mm | 0.45 m/s, 179° | - | - |
| 1777990757 | 20.56° C | 60% | 1016.6 hPa | 0 mm | 0.89 m/s, 260° | - | - |
| 1777990157 | 20° C | 60% | 1016.7 hPa | 0 mm | 0.45 m/s, 275° | - | - |
| 1777989557 | 19.44° C | 64% | 1016.9 hPa | 0 mm | 0.45 m/s, 164° | - | - |
| 1777988957 | 18.33° C | 66% | 1016.8 hPa | 0 mm | 0.45 m/s, 337° | - | - |
| 1777988357 | 17.78° C | 68% | 1016.8 hPa | 0 mm | 0.45 m/s, 345° | - | - |
| 1777987757 | 16.67° C | 70% | 1016.9 hPa | 0 mm | 1.34 m/s, 328° | - | - |
| 1777987157 | 16.67° C | 70% | 1016.8 hPa | 0 mm | 1.34 m/s, 311° | - | - |
| 1777986557 | 16.67° C | 70% | 1016.7 hPa | 0 mm | 0.89 m/s, 299° | - | - |
| 1777985957 | 16.11° C | 72% | 1016.5 hPa | 0 mm | 0.45 m/s, 326° | - | - |
| 1777985357 | 15° C | 73% | 1016.5 hPa | 0 mm | 0.45 m/s, 345° | - | - |
| 1777984757 | 14.44° C | 74% | 1016.3 hPa | 0 mm | 0 m/s | - | - |
* Rain latest hour (hover to see other rain measurements)
** Current wind speed in m/s (hover to see current wind gust speed)